[[{"header":{"parameterUnit":"m.s-1","parameterCategory":1,"la1":30.2991,"la2":30.254,"lo1":-89.0895,"lo2":-89.0444,"dy":0.0017,"dx":0.0017,"nx":28,"ny":28,"refTime":"2024-04-28T03:00:00:Z","depth":0,"parameterNumber":2,"parameterNumberName":"U-component_of_WINDS"},"data":[0,0,0,0,0,0,0,0,0,0,0,0,0,0,0,0,0,0,0,0,0,0,0,0,0,0,0,0,0,0,0,0,0,0,0,0,0,0,0,0,0,0,0,0,0,0,0,0,0,0,0,0,0,0,0,0,0,0,-4.5291,-4.5292,0,-4.5396,-4.5398,-4.5399,-4.541,-4.5409,-4.5408,-4.5407,-4.5513,-4.5517,-4.552,0,0,0,0,0,0,0,0,0,0,0,0,0,-4.5097,-4.5101,-4.5291,-4.5292,-4.5293,-4.5396,-4.5398,-4.5399,-4.541,-4.5409,-4.5408,-4.5407,-4.5512,-4.5516,-4.5521,0,0,0,0,0,0,0,0,0,0,0,0,0,-4.519,-4.5102,-4.529,-4.5311,-4.5314,-4.5396,-4.5398,-4.54,-4.5411,-4.5409,-4.5408,-4.5406,-4.551,-4.5516,-4.5521,-4.5589,0,0,-4.5539,-4.5541,0,0,0,0,0,0,0,0,-4.5185,-4.5197,-4.5307,-4.531,-4.5313,-4.5389,-4.5368,-4.5463,-4.5411,-4.5374,-4.5407,-4.5405,-4.5473,-4.5481,-4.5505,-4.5593,-4.5598,-4.5539,-4.5543,-4.5545,-4.5547,0,0,0,0,0,0,0,-4.5178,-4.5193,-4.5332,-4.5308,-4.5313,-4.5315,-4.5327,-4.5386,-4.5431,-4.5377,-4.5378,-4.5391,-4.5474,-4.5499,-4.5507,-4.56,-4.5539,-4.5544,-4.5548,-4.555,-4.5749,-4.5751,0,0,0,0,0,0,-4.5168,-4.5187,-4.5329,-4.5336,-4.5244,-4.532,-4.5333,-4.5366,-4.543,-4.5439,-4.5392,-4.5391,-4.549,-4.55,-4.5511,-4.5593,-4.5545,-4.5551,-4.5554,-4.5747,-4.575,-4.5752,0,0,0,0,0,0,-4.5164,-4.5181,-4.5325,-4.5262,-4.528,-4.5325,-4.5362,-4.5369,-4.5394,-4.5442,-4.5449,-4.5409,-4.5489,-4.5503,-4.5569,-4.5597,-4.5553,-4.5558,-4.5745,-4.5748,-4.5751,-4.5758,0,0,0,0,0,0,-4.5158,-4.5179,-4.5205,-4.5262,-4.5284,-4.5381,-4.5364,-4.5372,-4.5404,-4.5404,-4.546,-4.5468,-4.5489,-4.5561,-4.5575,-4.5604,-4.5563,-4.5743,-4.5747,-4.575,-4.5755,-4.5761,-4.5765,0,0,0,0,0,-4.5152,-4.5202,-4.5206,-4.5223,-4.5317,-4.5383,-4.5395,-4.5419,-4.5406,-4.5432,-4.5464,-4.5466,-4.5593,-4.5568,-4.5584,-4.5615,-4.5741,-4.5746,-4.575,-4.5753,-4.576,-4.5765,0,0,0,0,0,0,-4.5146,-4.521,-4.5215,-4.5286,-4.5329,-4.5385,-4.5418,-4.5426,-4.5472,-4.547,-4.5498,-4.551,-4.5575,-4.5602,-4.5573,-4.5683,-4.5665,-4.5673,-4.5663,-4.5669,-4.5674,-4.5665,-4.5567,0,0,0,0,0,-4.5153,-4.5202,-4.5255,-4.5313,-4.5334,-4.5373,-4.5403,-4.5418,-4.5463,-4.5481,-4.5517,-4.556,-4.561,-4.5642,-4.569,-4.5761,-4.5773,-4.5791,-4.5795,-4.5799,-4.5804,-4.5843,-4.5852,-4.5766,-4.5766,-4.5765,0,0,-4.5168,-4.5209,-4.5238,-4.5313,-4.5348,-4.5397,-4.5388,-4.544,-4.5477,-4.5489,-4.5553,-4.5582,-4.5632,-4.5701,-4.5733,-4.5725,-4.5832,-4.5805,-4.5807,-4.581,-4.5849,-4.5857,-4.5864,-4.5768,-4.5768,-4.5767,0,0,-4.5219,-4.5256,-4.5308,-4.5344,-4.5398,-4.5424,-4.5436,-4.5492,-4.5511,-4.5577,-4.5587,-4.5632,-4.5717,-4.5752,-4.5781,-4.5849,-4.5853,-4.5865,-4.5889,-4.5927,-4.5933,-4.5939,-4.5962,-4.597,-4.587,-4.5871,-4.5871,0,-4.523,-4.5305,-4.5333,-4.5386,-4.5418,-4.5434,-4.5486,-4.5519,-4.5586,-4.5608,-4.5599,-4.5707,-4.5742,-4.5819,-4.5836,-4.586,-4.5874,-4.5856,-4.593,-4.5937,-4.5943,-4.5965,-4.5973,-4.5871,-4.5871,-4.5871,-4.5871,0,-4.5316,-4.5368,-4.5403,-4.5468,-4.5505,-4.5557,-4.5593,-4.5627,-4.564,-4.5667,-4.5734,-4.5778,-4.5835,-4.5855,-4.5868,-4.5935,-4.5928,-4.5925,-4.5906,-4.5951,-4.5972,-4.5981,-4.5873,-4.5872,-4.5872,-4.5872,0,0,-4.5362,-4.5445,-4.5457,-4.5486,-4.5549,-4.5589,-4.5643,-4.57,-4.5728,-4.5775,-4.5819,-4.5893,-4.589,-4.5923,-4.5941,-4.5975,-4.6025,-4.5967,-4.5969,-4.5974,-4.6099,-4.6099,-4.6109,-4.6029,-4.6031,-4.6033,-4.6094,0,-4.5419,-4.5514,-4.5542,-4.5622,-4.5671,-4.5688,-4.5734,-4.5777,-4.5805,-4.585,-4.588,-4.593,-4.5925,-4.5945,-4.5979,-4.6011,-4.605,-4.6008,-4.6069,-4.6071,-4.6053,-4.612,-4.612,-4.6176,-4.6103,-4.6104,-4.6106,0,-4.5497,-4.5546,-4.5631,-4.5688,-4.5709,-4.575,-4.5805,-4.5849,-4.5898,-4.5916,-4.5955,-4.597,-4.6026,-4.6008,-4.6085,-4.6056,-4.6084,-4.6104,-4.6107,-4.6111,-4.6088,-4.6123,-4.6195,-4.6202,-4.6119,-4.6118,-4.6117,0,-4.552,-4.5608,-4.567,-4.5695,-4.5764,-4.5792,-4.5822,-4.587,-4.5903,-4.5952,-4.5974,-4.6028,-4.6057,-4.6099,-4.6129,-4.6113,-4.6203,-4.6188,-4.6218,-4.6217,-4.6233,-4.6231,-4.6307,-4.6256,-4.6256,-4.6256,-4.6256,0,-4.5578,-4.5629,-4.5681,-4.5719,-4.5776,-4.5809,-4.5865,-4.5896,-4.5939,-4.5983,-4.6003,-4.6043,-4.6081,-4.6127,-4.6151,-4.6211,-4.6225,-4.624,-4.6245,-4.6236,-4.6234,-4.6252,-4.6248,-4.6258,-4.6258,-4.6257,-4.6257,0,-4.5612,-4.5649,-4.5718,-4.5778,-4.5794,-4.5834,-4.5885,-4.5923,-4.5953,-4.6008,-4.6023,-4.6069,-4.6124,-4.6159,-4.6229,-4.6245,-4.631,-4.6316,-4.6293,-4.6295,-4.6323,-4.6319,-4.6411,-4.6424,-4.6366,-4.6367,-4.6367,0,-4.5645,-4.5685,-4.575,-4.5781,-4.5812,-4.5862,-4.5896,-4.5931,-4.5966,-4.6027,-4.6057,-4.6114,-4.616,-4.6248,-4.6287,-4.6341,-4.6346,-4.6375,-4.6354,-4.6345,-4.6344,-4.634,-4.6344,-4.6377,-4.6378,-4.6378,-4.6378,0,-4.57,-4.5717,-4.5766,-4.5822,-4.5862,-4.5908,-4.5953,-4.5978,-4.6021,-4.6059,-4.6116,-4.6153,-4.6226,-4.6281,-4.634,-4.637,-4.6381,-4.6385,-4.6395,-4.6385,-4.6369,-4.6376,-4.63,-4.6382,-4.6382,-4.6381,-4.6381,-4.6381,-4.5733,-4.5769,-4.5821,-4.5875,-4.5913,-4.5956,-4.5994,-4.6029,-4.6078,-4.614,-4.6158,-4.6218,-4.6268,-4.6347,-4.6379,-4.6426,-4.6422,-4.6436,-4.6439,-4.6442,-4.6441,-4.6365,-4.6437,-4.6437,-4.6437,-4.6437,-4.6437,0,-4.5786,-4.5821,-4.5871,-4.5935,-4.5978,-4.5987,-4.6038,-4.6073,-4.6125,-4.6172,-4.6219,-4.6285,-4.634,-4.6385,-4.6441,-4.647,-4.6477,-4.6484,-4.648,-4.6487,-4.6442,-4.6427,-4.6477,-4.6477,-4.6477,-4.6477,-4.6477,-4.6477,-4.5819,-4.588,-4.5904,-4.5985,-4.6019,-4.6078,-4.6107,-4.6146,-4.6183,-4.6256,-4.6303,-4.6332,-4.6378,-4.6439,-4.649,-4.6502,-4.652,-4.6526,-4.6538,-4.6495,-4.649,-4.6486,-4.6472,-4.653,-4.653,-4.6579,-4.658,-4.658]},{"header":{"parameterUnit":"m.s-1","parameterCategory":1,"la1":30.2991,"la2":30.254,"lo1":-89.0895,"lo2":-89.0444,"dy":0.0017,"dx":0.0017,"nx":28,"ny":28,"refTime":"2024-04-28T03:00:00:Z","depth":0,"parameterNumber":3,"parameterNumberName":"V-component_of_WINDS"},"data":[0,0,0,0,0,0,0,0,0,0,0,0,0,0,0,0,0,0,0,0,0,0,0,0,0,0,0,0,0,0,0,0,0,0,0,0,0,0,0,0,0,0,0,0,0,0,0,0,0,0,0,0,0,0,0,0,0,0,4.2558,4.2559,0,4.2679,4.2681,4.2682,4.2634,4.2631,4.2629,4.2626,4.2747,4.2752,4.2758,0,0,0,0,0,0,0,0,0,0,0,0,0,4.2282,4.2288,4.2558,4.2559,4.2561,4.2679,4.2681,4.2682,4.2635,4.2631,4.2628,4.2625,4.2745,4.2752,4.2759,0,0,0,0,0,0,0,0,0,0,0,0,0,4.2403,4.2289,4.2557,4.2551,4.2552,4.2679,4.2681,4.2683,4.2636,4.2631,4.2627,4.2623,4.2742,4.2751,4.276,4.2898,0,0,4.2786,4.279,0,0,0,0,0,0,0,0,4.2396,4.2413,4.2551,4.2552,4.2553,4.2637,4.2628,4.2755,4.2637,4.2604,4.2626,4.2621,4.2713,4.2724,4.2756,4.2904,4.2909,4.2787,4.2792,4.2796,4.2799,0,0,0,0,0,0,0,4.2388,4.2407,4.2605,4.2553,4.2554,4.2542,4.2554,4.2652,4.2681,4.2606,4.2603,4.2618,4.2713,4.2748,4.2759,4.2911,4.2787,4.2795,4.28,4.2803,4.3179,4.3184,0,0,0,0,0,0,4.2379,4.2401,4.2602,4.2609,4.2463,4.255,4.2564,4.2614,4.2679,4.2685,4.2622,4.2616,4.2735,4.2749,4.2763,4.293,4.2796,4.2804,4.2809,4.3175,4.318,4.3185,0,0,0,0,0,0,4.2374,4.2398,4.2597,4.2504,4.2529,4.256,4.2616,4.2619,4.2654,4.2691,4.2696,4.2652,4.2732,4.275,4.2865,4.2934,4.2808,4.2816,4.3169,4.3176,4.3183,4.3266,0,0,0,0,0,0,4.2366,4.2396,4.2449,4.2506,4.2534,4.2698,4.2621,4.2624,4.2669,4.2663,4.2721,4.2726,4.273,4.2853,4.2874,4.2943,4.2823,4.3163,4.3172,4.3181,4.3257,4.3275,4.329,0,0,0,0,0,4.2356,4.2467,4.2452,4.2477,4.2601,4.2702,4.2718,4.2721,4.2675,4.2729,4.2753,4.2725,4.2923,4.2865,4.2889,4.2962,4.3159,4.317,4.318,4.325,4.3271,4.329,0,0,0,0,0,0,4.2415,4.2474,4.2458,4.2591,4.2642,4.2694,4.2762,4.2744,4.2809,4.2799,4.2799,4.2813,4.2932,4.2958,4.2892,4.31,4.3034,4.305,4.3078,4.3099,4.3115,4.3107,4.283,0,0,0,0,0,4.2444,4.2522,4.2569,4.2681,4.2708,4.2731,4.2775,4.2773,4.2826,4.2847,4.2879,4.2931,4.3005,4.3053,4.3123,4.3261,4.3273,4.3323,4.3339,4.3352,4.3366,4.3442,4.3465,4.322,4.322,4.322,0,0,4.2504,4.2545,4.2594,4.2694,4.2733,4.2814,4.2749,4.2836,4.2896,4.286,4.2971,4.2997,4.3054,4.3182,4.3239,4.3207,4.3437,4.3366,4.3376,4.3383,4.3455,4.3478,4.3499,4.3228,4.3226,4.3225,0,0,4.2654,4.2693,4.2791,4.2833,4.2895,4.291,4.2933,4.2989,4.3005,4.3117,4.3092,4.3163,4.329,4.3332,4.337,4.3539,4.3515,4.3562,4.3648,4.3721,4.3741,4.3758,4.3819,4.384,4.3575,4.3575,4.3575,0,4.2719,4.2841,4.2844,4.2934,4.2979,4.2952,4.3052,4.3091,4.3172,4.3204,4.3167,4.3327,4.3364,4.3501,4.3542,4.3574,4.3601,4.3555,4.3738,4.3755,4.3771,4.3829,4.3852,4.3581,4.358,4.3579,4.3579,0,4.2919,4.3004,4.3076,4.3157,4.321,4.3304,4.3321,4.3374,4.3368,4.3387,4.3502,4.3545,4.3624,4.3657,4.3651,4.3794,4.3772,4.3737,4.367,4.38,4.3854,4.3876,4.3588,4.3586,4.3585,4.3583,0,0,4.3109,4.3192,4.3218,4.3256,4.3322,4.3388,4.3481,4.356,4.3606,4.3663,4.3741,4.3851,4.3819,4.3863,4.3861,4.3926,4.4058,4.3883,4.3884,4.3915,4.422,4.4246,4.4272,4.4043,4.4048,4.4051,4.4215,0,4.3264,4.343,4.3436,4.3587,4.3666,4.3642,4.3723,4.3773,4.3794,4.3863,4.3884,4.3963,4.3914,4.3941,4.4004,4.4029,4.412,4.4017,4.4116,4.412,4.4103,4.43,4.4329,4.4481,4.4236,4.424,4.4243,0,4.3468,4.3534,4.3693,4.3751,4.3784,4.3857,4.3931,4.3998,4.4053,4.4064,4.4114,4.4104,4.4199,4.413,4.4262,4.4192,4.4233,4.4251,4.4257,4.4267,4.4189,4.4316,4.453,4.4553,4.4276,4.4273,4.4271,0,4.3591,4.372,4.3832,4.3864,4.3934,4.3986,4.4017,4.4069,4.4117,4.4181,4.4212,4.4286,4.4327,4.4384,4.4394,4.4343,4.4526,4.4458,4.4538,4.4538,4.4577,4.4575,4.4802,4.4603,4.4603,4.4602,4.4602,0,4.3765,4.3863,4.3889,4.3958,4.4068,4.4074,4.4182,4.4209,4.4256,4.433,4.4313,4.4382,4.4392,4.4463,4.4472,4.458,4.4598,4.4609,4.461,4.4611,4.461,4.4638,4.4628,4.4608,4.4607,4.4606,4.4605,0,4.3921,4.3942,4.4063,4.412,4.4137,4.4215,4.4263,4.433,4.4349,4.4442,4.4465,4.4494,4.4578,4.4594,4.4692,4.4698,4.4828,4.4817,4.4809,4.4808,4.4888,4.488,4.5141,4.5176,4.4954,4.4956,4.4958,0,4.4031,4.4107,4.4172,4.4221,4.4256,4.4335,4.4384,4.4393,4.4445,4.4516,4.4573,4.4656,4.4722,4.4857,4.4886,4.4962,4.4954,4.504,4.4965,4.4964,4.4956,4.4952,4.496,4.5055,4.5057,4.5059,4.5061,0,4.4224,4.4231,4.4303,4.438,4.444,4.45,4.4557,4.4598,4.4615,4.4674,4.4761,4.4812,4.4914,4.4996,4.5072,4.5102,4.5085,4.5084,4.5107,4.5109,4.5101,4.5108,4.4849,4.5078,4.5076,4.5075,4.5074,4.5073,4.4361,4.4427,4.4485,4.4566,4.4611,4.4666,4.4731,4.476,4.4832,4.4917,4.4917,4.5012,4.5067,4.5167,4.5203,4.5277,4.525,4.5282,4.5291,4.5299,4.5307,4.5089,4.5291,4.529,4.529,4.5289,4.5289,0,4.4553,4.459,4.4665,4.4747,4.4811,4.479,4.4853,4.4908,4.4992,4.5046,4.5112,4.5212,4.5292,4.5329,4.5408,4.546,4.5454,4.5481,4.5477,4.5485,4.5326,4.5299,4.5484,4.5484,4.5484,4.5484,4.5484,4.5484,4.4661,4.4774,4.4788,4.4923,4.4958,4.5052,4.509,4.514,4.5183,4.5296,4.5363,4.5387,4.5435,4.5517,4.5589,4.5598,4.5628,4.5659,4.5664,4.5515,4.5496,4.5477,4.5451,4.5665,4.5665,4.5816,4.5818,4.5819]}]]